Location: Strawberry
(45.6646°N, 111.9596°W)
Time: 23:55:18
(UTC+00:00)

Courier 1B Rocket - Pass Details

Date: 07 October 2022
Orbit: 920 x 1202 km, 28.3° (Epoch: 03 December)

Event Time Altitude Azimuth Distance (km) Brightness Sun altitude
Rises 03:07:38 0° 241° (WSW) 3,782 8.7 -23.2°
Reaches altitude 10° 03:11:30 10° 222° (SW) 2,770 7.6 -23.9°
Maximum altitude 03:15:22 16° 186° (S) 2,297 6.8 -24.5°
Enters shadow 03:16:08 16° 178° (S) 2,305 6.7 -24.6°
Drops below altitude 10° 03:19:08 10° 150° (SSE) 2,670 - -25.1°
Sets 03:22:46 0° 129° (SE) 3,580 - -25.7°
